TDRS 7

operational
NORAD ID: 23613 Int'l Des: 1995-035 Owner: GSFC Country: US
HEOCIRCULARGSO

TDRS 7について

説明を読み込み中...

リアルタイム位置

3D地球を読み込み中...

次回通過

高度履歴

Altitude vs Time

uPlot chart will show altitude changes over time

軌道要素

1 23613U 95035B 26063.62083492 -.00000245 00000-0 00000-0 0 9990
2 23613 13.4204 348.9070 0008188 47.4770 78.5013 1.00276443112203
Epoch: Mar 4, 2026 • Age: 23 hours

現在のステータス

高度 35819.6 km
速度 3.07 km/s
衛星直下点 -12.44°S, 88.45°E
打ち上げ日 Jul 13, 1995
運用期間 30.6 years
タイプ other

技術仕様

分類 Payload
質量 2225.00 kg
乾燥質量 1673.00 kg
総質量 2225.00 kg
長さ 1.30 m
直径 2.40 m
スパン 17.40 m
形状 Box + Dish + 2 Pan
製造者 TRW
バスタイプ TDRS
フェーズステータス In Orbit
所有者/国 GSFC/US

大規模コンステレーション

Loading constellations...